Location: Bald Rock
(37.3738°N, 119.9354°W)
Time: 22:16:59
(UTC+00:00)

Cosmos 1812 - Pass Details

Date: 08 September 2024
Orbit: 452 x 455 km, 82.5° (Epoch: 12 October)

Event Time Altitude Azimuth Distance (km) Brightness Sun altitude
Rises 11:08:56 0° 119° (ESE) 2,474 6.5 -28.2°
Enters shadow 12:18:46 -51° 187° (S) 10,407 9.2 -15.8°
Maximum altitude 12:46:03 70° 278° (W) 496 2.4 -10.7°
